TimeEDT,TemperatureF,Dew PointF,Humidity,Sea Level PressureIn,VisibilityMPH,Wind Direction,Wind SpeedMPH,Gust SpeedMPH,PrecipitationIn,Events,Conditions,WindDirDegrees,DateUTC
12:53 AM,75.9,73.9,94,30.16,10.0,Calm,Calm,-,N/A,,Clear,0,2012-09-01 04:53:00
1:53 AM,75.9,73.9,94,30.14,10.0,Calm,Calm,-,N/A,,Clear,0,2012-09-01 05:53:00
2:17 AM,75.2,73.4,94,30.15,10.0,Calm,Calm,-,N/A,,Scattered Clouds,0,2012-09-01 06:17:00
2:25 AM,75.2,73.4,94,30.15,9.0,Calm,Calm,-,N/A,,Mostly Cloudy,0,2012-09-01 06:25:00
2:53 AM,75.9,73.9,94,30.13,4.0,Calm,Calm,-,N/A,,Overcast,0,2012-09-01 06:53:00
2:58 AM,75.2,73.4,94,30.14,1.8,Calm,Calm,-,N/A,,Overcast,0,2012-09-01 06:58:00
3:03 AM,75.2,75.2,100,30.14,0.8,Calm,Calm,-,N/A,,Mist,0,2012-09-01 07:03:00
3:17 AM,75.2,75.2,100,30.14,0.2,Calm,Calm,-,N/A,Fog,Fog,0,2012-09-01 07:17:00
3:53 AM,75.9,75.0,97,30.12,0.5,Calm,Calm,-,N/A,Fog,Fog,0,2012-09-01 07:53:00
4:28 AM,75.2,75.2,100,30.13,0.2,Calm,Calm,-,N/A,Fog,Fog,0,2012-09-01 08:28:00
4:53 AM,75.9,75.0,97,30.12,0.2,Calm,Calm,-,N/A,Fog,Fog,0,2012-09-01 08:53:00
5:53 AM,75.2,75.2,100,30.13,0.2,Calm,Calm,-,N/A,Fog,Fog,0,2012-09-01 09:53:00
6:39 AM,75.2,75.2,100,30.15,0.5,Calm,Calm,-,N/A,Fog,Fog,0,2012-09-01 10:39:00
6:53 AM,75.9,75.0,97,30.14,1.2,Calm,Calm,-,N/A,,Overcast,0,2012-09-01 10:53:00
7:05 AM,75.2,75.2,100,30.15,0.5,Calm,Calm,-,N/A,Fog,Fog,0,2012-09-01 11:05:00
7:26 AM,75.2,75.2,100,30.16,0.2,Calm,Calm,-,N/A,Fog,Fog,0,2012-09-01 11:26:00
7:53 AM,75.9,75.0,97,30.16,0.2,Calm,Calm,-,N/A,Fog,Fog,0,2012-09-01 11:53:00
8:53 AM,77.0,75.9,96,30.17,0.2,Calm,Calm,-,N/A,Fog,Fog,0,2012-09-01 12:53:00
9:18 AM,77.0,75.2,94,30.18,0.5,Calm,Calm,-,N/A,Fog,Fog,0,2012-09-01 13:18:00
9:29 AM,78.8,75.2,89,30.18,1.8,Calm,Calm,-,N/A,,Overcast,0,2012-09-01 13:29:00
9:33 AM,78.8,75.2,89,30.18,3.0,Calm,Calm,-,N/A,,Overcast,0,2012-09-01 13:33:00
9:53 AM,78.1,77.0,96,30.18,10.0,Calm,Calm,-,N/A,,Mostly Cloudy,0,2012-09-01 13:53:00
10:10 AM,80.6,77.0,89,30.19,10.0,Calm,Calm,-,N/A,,Mostly Cloudy,0,2012-09-01 14:10:00
10:42 AM,84.2,75.2,74,30.20,10.0,Variable,3.5,-,N/A,,Scattered Clouds,0,2012-09-01 14:42:00
10:53 AM,82.9,73.9,74,30.19,10.0,Calm,Calm,-,N/A,,Partly Cloudy,0,2012-09-01 14:53:00
11:18 AM,84.2,73.4,70,30.20,10.0,ESE,4.6,-,N/A,,Mostly Cloudy,110,2012-09-01 15:18:00
11:53 AM,87.8,73.4,62,30.19,10.0,Calm,Calm,-,N/A,,Scattered Clouds,0,2012-09-01 15:53:00
12:04 PM,87.8,73.4,62,30.19,10.0,East,5.8,-,N/A,,Mostly Cloudy,90,2012-09-01 16:04:00
12:16 PM,87.8,73.4,62,30.19,10.0,Calm,Calm,-,N/A,,Mostly Cloudy,0,2012-09-01 16:16:00
12:27 PM,87.8,71.6,58,30.19,10.0,Variable,3.5,-,N/A,,Overcast,0,2012-09-01 16:27:00
12:35 PM,89.6,73.4,59,30.18,10.0,North,5.8,-,N/A,,Mostly Cloudy,10,2012-09-01 16:35:00
12:53 PM,88.0,72.0,59,30.17,10.0,NE,8.1,-,N/A,,Mostly Cloudy,40,2012-09-01 16:53:00
1:53 PM,90.0,71.1,54,30.15,10.0,Calm,Calm,-,N/A,,Scattered Clouds,0,2012-09-01 17:53:00
2:53 PM,91.0,70.0,50,30.12,10.0,NNE,3.5,-,N/A,,Partly Cloudy,20,2012-09-01 18:53:00
3:53 PM,93.0,69.1,45,30.09,10.0,NNE,6.9,-,N/A,,Scattered Clouds,30,2012-09-01 19:53:00
4:53 PM,91.0,69.1,48,30.07,10.0,East,4.6,-,N/A,,Mostly Cloudy,80,2012-09-01 20:53:00
5:53 PM,90.0,70.0,52,30.06,10.0,ESE,8.1,-,N/A,,Scattered Clouds,110,2012-09-01 21:53:00
6:53 PM,87.1,71.1,59,30.06,10.0,East,5.8,-,N/A,,Scattered Clouds,80,2012-09-01 22:53:00
7:53 PM,82.9,73.0,72,30.07,10.0,East,3.5,-,N/A,,Clear,90,2012-09-01 23:53:00
8:53 PM,80.1,73.0,79,30.09,10.0,East,3.5,-,N/A,,Clear,100,2012-09-02 00:53:00
9:53 PM,79.0,73.0,82,30.10,10.0,Calm,Calm,-,N/A,,Clear,0,2012-09-02 01:53:00
10:53 PM,78.1,72.0,81,30.11,10.0,Calm,Calm,-,N/A,,Clear,0,2012-09-02 02:53:00
11:53 PM,77.0,72.0,84,30.11,10.0,West,4.6,-,N/A,,Clear,280,2012-09-02 03:53:00